START_TIME,STEP,MOV.,E45,t_acc.,ALAR?,t_acc.,A12,t_acc.,A24,t_acc.
1979-08-03 12:00:25.040 ,0,0,2.,4.8,180.,4.8,0.,4.8,0.,4.8
1979-08-03 12:00:29.840 ,0,0,1.,4.8,180.,4.8,0.,4.8,0.,4.8
1979-08-03 12:00:34.640 ,0,0,0.,4.8,212.,4.8,0.,4.8,0.,4.8
1979-08-03 12:00:39.440 ,0,0,3.,4.8,184.,4.8,0.,4.8,0.,4.8
1979-08-03 12:00:44.240 ,0,0,1.,4.8,212.,4.8,0.,4.8,0.,4.8
1979-08-03 12:00:49.040 ,1,0,1.,4.8,240.,4.8,0.,4.8,0.,4.8
1979-08-03 12:00:53.840 ,1,0,1.,4.8,208.,4.8,0.,4.8,0.,4.8
1979-08-03 12:00:58.640 ,1,0,1.,4.8,192.,4.8,0.,4.8,0.,4.8
1979-08-03 12:01:03.440 ,1,0,1.,4.8,208.,4.8,0.,4.8,0.,4.8
1979-08-03 12:01:08.240 ,1,0,1.,4.8,204.,4.8,0.,4.8,0.,4.8
1979-08-03 12:01:13.040 ,1,0,0.,4.8,208.,4.8,0.,4.8,0.,4.8
1979-08-03 12:01:17.840 ,1,0,1.,4.8,208.,4.8,0.,4.8,0.,4.8
1979-08-03 12:01:22.640 ,1,0,2.,4.8,212.,4.8,0.,4.8,1.,4.8
1979-08-03 12:01:27.440 ,1,0,0.,4.8,184.,4.8,0.,4.8,0.,4.8
1979-08-03 12:01:32.240 ,1,0,1.,4.8,164.,4.8,0.,4.8,0.,4.8
1979-08-03 12:01:37.040 ,2,0,0.,4.8,204.,4.8,0.,4.8,0.,4.8
1979-08-03 12:01:41.840 ,2,0,0.,4.8,212.,4.8,0.,4.8,1.,4.8
1979-08-03 12:01:46.640 ,2,0,1.,4.8,208.,4.8,0.,4.8,0.,4.8
1979-08-03 12:01:51.440 ,2,0,0.,4.8,208.,4.8,0.,4.8,0.,4.8
1979-08-03 12:01:56.240 ,2,0,1.,4.8,196.,4.8,1.,4.8,0.,4.8
1979-08-03 12:02:01.040 ,0,0,2.,4.8,216.,4.8,0.,4.8,0.,4.8
1979-08-03 12:02:05.840 ,0,0,0.,4.8,196.,4.8,0.,4.8,0.,4.8
1979-08-03 12:02:10.640 ,0,0,2.,4.8,224.,4.8,0.,4.8,0.,4.8
1979-08-03 12:02:15.440 ,0,0,,0,,0,,0,,0
1979-08-03 12:02:20.240 ,0,0,1.,4.8,180.,4.8,0.,4.8,0.,4.8
1979-08-03 12:02:25.040 ,3,0,1.,4.8,212.,4.8,0.,4.8,0.,4.8
1979-08-03 12:02:29.840 ,3,0,1.,4.8,204.,4.8,0.,4.8,0.,4.8
1979-08-03 12:02:34.640 ,3,0,1.,4.8,220.,4.8,0.,4.8,0.,4.8
1979-08-03 12:02:39.440 ,3,0,1.,4.8,228.,4.8,0.,4.8,0.,4.8
1979-08-03 12:02:44.240 ,3,0,0.,4.8,204.,4.8,0.,4.8,0.,4.8
1979-08-03 12:02:49.040 ,3,0,0.,4.8,188.,4.8,0.,4.8,0.,4.8
1979-08-03 12:02:53.840 ,3,0,1.,4.8,204.,4.8,0.,4.8,0.,4.8
1979-08-03 12:02:58.640 ,3,0,2.,4.8,212.,4.8,0.,4.8,0.,4.8
1979-08-03 12:03:03.440 ,3,0,1.,4.8,232.,4.8,0.,4.8,0.,4.8
1979-08-03 12:03:08.240 ,3,0,2.,4.8,216.,4.8,0.,4.8,0.,4.8
1979-08-03 12:03:13.040 ,4,0,2.,4.8,216.,4.8,0.,4.8,0.,4.8
1979-08-03 12:03:17.840 ,4,0,2.,4.8,188.,4.8,0.,4.8,0.,4.8
1979-08-03 12:03:22.640 ,4,0,2.,4.8,184.,4.8,0.,4.8,0.,4.8
1979-08-03 12:03:27.440 ,4,0,3.,4.8,200.,4.8,0.,4.8,0.,4.8
1979-08-03 12:03:32.240 ,4,0,2.,4.8,224.,4.8,0.,4.8,0.,4.8
1979-08-03 12:03:37.040 ,4,0,0.,4.8,200.,4.8,0.,4.8,0.,4.8
1979-08-03 12:03:41.840 ,4,0,3.,4.8,196.,4.8,0.,4.8,0.,4.8
1979-08-03 12:03:46.640 ,4,0,3.,4.8,220.,4.8,0.,4.8,0.,4.8
1979-08-03 12:03:51.440 ,4,0,2.,4.8,208.,4.8,0.,4.8,0.,4.8
1979-08-03 12:03:56.240 ,4,0,5.,4.8,224.,4.8,0.,4.8,0.,4.8
1979-08-03 12:04:01.040 ,5,0,3.,4.8,244.,4.8,0.,4.8,0.,4.8
1979-08-03 12:04:05.840 ,5,0,4.,4.8,212.,4.8,0.,4.8,0.,4.8
1979-08-03 12:04:10.640 ,5,0,1.,4.8,224.,4.8,0.,4.8,0.,4.8
1979-08-03 12:04:15.440 ,5,0,3.,4.8,196.,4.8,0.,4.8,0.,4.8
1979-08-03 12:04:20.240 ,5,0,1.,4.8,264.,4.8,0.,4.8,0.,4.8
1979-08-03 12:04:25.040 ,5,0,2.,4.8,220.,4.8,0.,4.8,0.,4.8
1979-08-03 12:04:29.840 ,5,0,2.,4.8,256.,4.8,0.,4.8,0.,4.8
1979-08-03 12:04:34.640 ,5,0,0.,4.8,204.,4.8,0.,4.8,0.,4.8
1979-08-03 12:04:39.440 ,5,0,4.,4.8,256.,4.8,0.,4.8,0.,4.8
1979-08-03 12:04:44.240 ,5,0,2.,4.8,248.,4.8,0.,4.8,0.,4.8
1979-08-03 12:04:49.040 ,6,0,1.,4.8,216.,4.8,0.,4.8,0.,4.8
1979-08-03 12:04:53.840 ,6,0,2.,4.8,212.,4.8,0.,4.8,0.,4.8
1979-08-03 12:04:58.640 ,6,0,2.,4.8,212.,4.8,0.,4.8,0.,4.8
1979-08-03 12:05:03.440 ,6,0,1.,4.8,204.,4.8,0.,4.8,0.,4.8
1979-08-03 12:05:08.240 ,6,0,3.,4.8,212.,4.8,0.,4.8,0.,4.8
1979-08-03 12:05:13.040 ,6,0,1.,4.8,212.,4.8,0.,4.8,0.,4.8
1979-08-03 12:05:17.840 ,6,0,1.,4.8,220.,4.8,0.,4.8,0.,4.8
1979-08-03 12:05:22.640 ,6,0,0.,4.8,216.,4.8,0.,4.8,0.,4.8
1979-08-03 12:05:27.440 ,6,0,4.,4.8,216.,4.8,0.,4.8,0.,4.8
1979-08-03 12:05:32.240 ,6,0,0.,4.8,192.,4.8,0.,4.8,0.,4.8
1979-08-03 12:05:37.040 ,7,0,2.,4.8,200.,4.8,0.,4.8,0.,4.8
1979-08-03 12:05:41.840 ,7,0,2.,4.8,216.,4.8,0.,4.8,0.,4.8
1979-08-03 12:05:46.640 ,7,0,1.,4.8,208.,4.8,0.,4.8,0.,4.8
1979-08-03 12:05:51.440 ,7,0,1.,4.8,204.,4.8,0.,4.8,0.,4.8
1979-08-03 12:05:56.240 ,7,0,1.,4.8,196.,4.8,0.,4.8,0.,4.8
1979-08-03 12:06:01.040 ,7,0,3.,4.8,212.,4.8,0.,4.8,0.,4.8
1979-08-03 12:06:05.840 ,7,0,0.,4.8,224.,4.8,0.,4.8,0.,4.8
1979-08-03 12:06:10.640 ,7,0,2.,4.8,212.,4.8,0.,4.8,0.,4.8
1979-08-03 12:06:15.440 ,7,0,1.,4.8,240.,4.8,0.,4.8,0.,4.8
1979-08-03 12:06:20.240 ,7,0,1.,4.8,208.,4.8,0.,4.8,0.,4.8
1979-08-03 12:06:25.040 ,7,0,3.,4.8,208.,4.8,0.,4.8,0.,4.8
1979-08-03 12:06:29.840 ,7,0,5.,4.8,240.,4.8,0.,4.8,0.,4.8
1979-08-03 12:06:34.640 ,7,0,1.,4.8,248.,4.8,0.,4.8,0.,4.8
1979-08-03 12:06:39.440 ,7,0,0.,4.8,208.,4.8,0.,4.8,0.,4.8
1979-08-03 12:06:44.240 ,7,0,1.,4.8,196.,4.8,0.,4.8,0.,4.8
1979-08-03 12:06:49.040 ,7,0,1.,4.8,236.,4.8,0.,4.8,0.,4.8
1979-08-03 12:06:53.840 ,7,0,1.,4.8,248.,4.8,0.,4.8,0.,4.8
1979-08-03 12:06:58.640 ,7,0,0.,4.8,232.,4.8,0.,4.8,0.,4.8
1979-08-03 12:07:03.440 ,7,0,4.,4.8,224.,4.8,0.,4.8,0.,4.8
1979-08-03 12:07:08.240 ,7,0,1.,4.8,224.,4.8,0.,4.8,0.,4.8
1979-08-03 12:07:13.040 ,6,0,1.,4.8,236.,4.8,0.,4.8,0.,4.8
1979-08-03 12:07:17.840 ,6,0,1.,4.8,228.,4.8,0.,4.8,0.,4.8
1979-08-03 12:07:22.640 ,6,0,2.,4.8,228.,4.8,0.,4.8,0.,4.8
1979-08-03 12:07:27.440 ,6,0,1.,4.8,212.,4.8,0.,4.8,0.,4.8
1979-08-03 12:07:32.240 ,6,0,2.,4.8,228.,4.8,0.,4.8,0.,4.8
1979-08-03 12:07:37.040 ,6,0,5.,4.8,240.,4.8,0.,4.8,0.,4.8
1979-08-03 12:07:41.840 ,6,0,0.,4.8,224.,4.8,0.,4.8,0.,4.8
1979-08-03 12:07:46.640 ,6,0,3.,4.8,208.,4.8,0.,4.8,0.,4.8
1979-08-03 12:07:51.440 ,6,0,5.,4.8,212.,4.8,0.,4.8,0.,4.8
1979-08-03 12:07:56.240 ,6,0,0.,4.8,224.,4.8,0.,4.8,0.,4.8
1979-08-03 12:08:01.040 ,5,0,0.,4.8,200.,4.8,0.,4.8,0.,4.8
1979-08-03 12:08:05.840 ,5,0,3.,4.8,224.,4.8,0.,4.8,0.,4.8
1979-08-03 12:08:10.640 ,5,0,2.,4.8,220.,4.8,0.,4.8,0.,4.8
1979-08-03 12:08:15.440 ,5,0,3.,4.8,208.,4.8,0.,4.8,0.,4.8
1979-08-03 12:08:20.240 ,5,0,0.,4.8,240.,4.8,0.,4.8,0.,4.8
1979-08-03 12:08:25.040 ,5,0,0.,4.8,204.,4.8,0.,4.8,0.,4.8
1979-08-03 12:08:29.840 ,5,0,2.,4.8,228.,4.8,0.,4.8,0.,4.8
1979-08-03 12:08:34.640 ,5,0,0.,4.8,208.,4.8,0.,4.8,0.,4.8
1979-08-03 12:08:39.440 ,5,0,4.,4.8,256.,4.8,0.,4.8,0.,4.8
1979-08-03 12:08:44.240 ,5,0,0.,4.8,224.,4.8,0.,4.8,0.,4.8
1979-08-03 12:08:49.040 ,4,0,1.,4.8,216.,4.8,0.,4.8,0.,4.8
1979-08-03 12:08:53.840 ,4,0,1.,4.8,184.,4.8,0.,4.8,0.,4.8
1979-08-03 12:08:58.640 ,4,0,2.,4.8,224.,4.8,0.,4.8,0.,4.8
1979-08-03 12:09:03.440 ,4,0,5.,4.8,220.,4.8,0.,4.8,0.,4.8
1979-08-03 12:09:08.240 ,4,0,2.,4.8,240.,4.8,0.,4.8,0.,4.8
1979-08-03 12:09:13.040 ,4,0,0.,4.8,216.,4.8,0.,4.8,0.,4.8
1979-08-03 12:09:17.840 ,4,0,1.,4.8,216.,4.8,0.,4.8,0.,4.8
1979-08-03 12:09:22.640 ,4,0,1.,4.8,236.,4.8,0.,4.8,0.,4.8
1979-08-03 12:09:27.440 ,4,0,1.,4.8,236.,4.8,0.,4.8,0.,4.8
1979-08-03 12:09:32.240 ,4,0,1.,4.8,224.,4.8,0.,4.8,0.,4.8
1979-08-03 12:09:37.040 ,3,0,4.,4.8,236.,4.8,0.,4.8,0.,4.8
1979-08-03 12:09:41.840 ,3,0,2.,4.8,204.,4.8,0.,4.8,0.,4.8
1979-08-03 12:09:46.640 ,3,0,1.,4.8,228.,4.8,0.,4.8,0.,4.8
1979-08-03 12:09:51.440 ,3,0,0.,4.8,224.,4.8,0.,4.8,0.,4.8
1979-08-03 12:09:56.240 ,3,0,1.,4.8,224.,4.8,0.,4.8,0.,4.8
1979-08-03 12:10:01.040 ,3,0,0.,4.8,228.,4.8,0.,4.8,0.,4.8
1979-08-03 12:10:05.840 ,3,0,3.,4.8,224.,4.8,0.,4.8,0.,4.8
1979-08-03 12:10:10.640 ,3,0,0.,4.8,216.,4.8,0.,4.8,0.,4.8
1979-08-03 12:10:15.440 ,3,0,0.,4.8,236.,4.8,0.,4.8,0.,4.8
1979-08-03 12:10:20.240 ,3,0,1.,4.8,240.,4.8,0.,4.8,0.,4.8
1979-08-03 12:10:25.040 ,2,0,6.,4.8,228.,4.8,0.,4.8,0.,4.8
1979-08-03 12:10:29.840 ,2,0,2.,4.8,232.,4.8,0.,4.8,0.,4.8
1979-08-03 12:10:34.640 ,2,0,0.,4.8,212.,4.8,0.,4.8,0.,4.8
1979-08-03 12:10:39.440 ,2,0,2.,4.8,224.,4.8,0.,4.8,0.,4.8
1979-08-03 12:10:44.240 ,2,0,0.,4.8,216.,4.8,0.,4.8,0.,4.8
1979-08-03 12:10:49.040 ,2,0,3.,4.8,224.,4.8,0.,4.8,0.,4.8
1979-08-03 12:10:53.840 ,2,0,3.,4.8,244.,4.8,0.,4.8,0.,4.8
1979-08-03 12:10:58.640 ,2,0,2.,4.8,264.,4.8,0.,4.8,0.,4.8
1979-08-03 12:11:03.440 ,2,0,1.,4.8,224.,4.8,0.,4.8,0.,4.8
1979-08-03 12:11:08.240 ,2,0,1.,4.8,208.,4.8,0.,4.8,0.,4.8
1979-08-03 12:11:13.040 ,1,0,2.,4.8,252.,4.8,0.,4.8,0.,4.8
1979-08-03 12:11:17.840 ,1,0,2.,4.8,228.,4.8,0.,4.8,0.,4.8
1979-08-03 12:11:22.640 ,1,0,1.,4.8,220.,4.8,0.,4.8,0.,4.8
1979-08-03 12:11:27.440 ,1,0,0.,4.8,228.,4.8,0.,4.8,0.,4.8
1979-08-03 12:11:32.240 ,1,0,0.,4.8,196.,4.8,0.,4.8,0.,4.8
1979-08-03 12:11:37.040 ,1,0,1.,4.8,216.,4.8,0.,4.8,0.,4.8
1979-08-03 12:11:41.840 ,1,0,5.,4.8,232.,4.8,0.,4.8,0.,4.8
1979-08-03 12:11:46.640 ,1,0,1.,4.8,236.,4.8,0.,4.8,0.,4.8
1979-08-03 12:11:51.440 ,1,0,3.,4.8,232.,4.8,0.,4.8,0.,4.8
1979-08-03 12:11:56.240 ,1,0,2.,4.8,224.,4.8,0.,4.8,0.,4.8
1979-08-03 12:12:01.040 ,0,0,2.,4.8,212.,4.8,0.,4.8,0.,4.8
1979-08-03 12:12:05.840 ,0,0,3.,4.8,248.,4.8,0.,4.8,0.,4.8
1979-08-03 12:12:10.640 ,0,0,0.,4.8,212.,4.8,0.,4.8,0.,4.8
1979-08-03 12:12:15.440 ,0,0,0.,4.8,236.,4.8,0.,4.8,0.,4.8
1979-08-03 12:12:20.240 ,0,0,1.,4.8,240.,4.8,0.,4.8,0.,4.8
1979-08-03 12:12:25.040 ,0,0,2.,4.8,220.,4.8,0.,4.8,0.,4.8
1979-08-03 12:12:29.840 ,0,0,1.,4.8,220.,4.8,0.,4.8,0.,4.8
1979-08-03 12:12:34.640 ,0,0,0.,4.8,252.,4.8,0.,4.8,0.,4.8
1979-08-03 12:12:39.440 ,0,0,1.,4.8,220.,4.8,0.,4.8,0.,4.8
1979-08-03 12:12:44.240 ,0,0,3.,4.8,232.,4.8,0.,4.8,0.,4.8
1979-08-03 12:12:49.040 ,0,0,1.,4.8,236.,4.8,0.,4.8,0.,4.8
1979-08-03 12:12:53.840 ,0,0,1.,4.8,232.,4.8,0.,4.8,0.,4.8
1979-08-03 12:12:58.640 ,0,0,2.,4.8,240.,4.8,0.,4.8,0.,4.8
1979-08-03 12:13:03.440 ,0,0,1.,4.8,236.,4.8,0.,4.8,0.,4.8
1979-08-03 12:13:08.240 ,0,0,4.,4.8,244.,4.8,0.,4.8,0.,4.8
1979-08-03 12:13:13.040 ,0,0,0.,4.8,236.,4.8,0.,4.8,0.,4.8
1979-08-03 12:13:17.840 ,0,0,0.,4.8,224.,4.8,0.,4.8,0.,4.8
1979-08-03 12:13:22.640 ,0,0,3.,4.8,220.,4.8,0.,4.8,0.,4.8
1979-08-03 12:13:27.440 ,0,0,1.,4.8,208.,4.8,0.,4.8,0.,4.8
1979-08-03 12:13:32.240 ,0,0,1.,4.8,252.,4.8,0.,4.8,0.,4.8
1979-08-03 12:13:37.040 ,1,0,3.,4.8,228.,4.8,0.,4.8,0.,4.8
1979-08-03 12:13:41.840 ,1,0,0.,4.8,196.,4.8,0.,4.8,0.,4.8
1979-08-03 12:13:46.640 ,1,0,2.,4.8,228.,4.8,0.,4.8,0.,4.8
1979-08-03 12:13:51.440 ,1,0,0.,4.8,236.,4.8,0.,4.8,0.,4.8
1979-08-03 12:13:56.240 ,1,0,2.,4.8,204.,4.8,0.,4.8,0.,4.8
1979-08-03 12:14:01.040 ,1,0,1.,4.8,224.,4.8,0.,4.8,0.,4.8
1979-08-03 12:14:05.840 ,1,0,3.,4.8,208.,4.8,0.,4.8,0.,4.8
1979-08-03 12:14:10.640 ,1,0,2.,4.8,212.,4.8,0.,4.8,0.,4.8
1979-08-03 12:14:15.440 ,1,0,2.,4.8,232.,4.8,0.,4.8,0.,4.8
1979-08-03 12:14:20.240 ,1,0,1.,4.8,212.,4.8,0.,4.8,0.,4.8
1979-08-03 12:14:25.040 ,2,0,1.,4.8,208.,4.8,0.,4.8,0.,4.8
1979-08-03 12:14:29.840 ,2,0,3.,4.8,212.,4.8,0.,4.8,0.,4.8
1979-08-03 12:14:34.640 ,2,0,2.,4.8,228.,4.8,0.,4.8,0.,4.8
1979-08-03 12:14:39.440 ,2,0,1.,4.8,264.,4.8,0.,4.8,0.,4.8
1979-08-03 12:14:44.240 ,2,0,0.,4.8,224.,4.8,0.,4.8,0.,4.8
1979-08-03 12:14:49.040 ,2,0,1.,4.8,228.,4.8,0.,4.8,0.,4.8
1979-08-03 12:14:53.840 ,2,0,1.,4.8,228.,4.8,0.,4.8,0.,4.8
1979-08-03 12:14:58.640 ,2,0,1.,4.8,224.,4.8,0.,4.8,0.,4.8
1979-08-03 12:15:03.440 ,2,0,3.,4.8,216.,4.8,0.,4.8,0.,4.8
1979-08-03 12:15:08.240 ,2,0,2.,4.8,228.,4.8,0.,4.8,0.,4.8
1979-08-03 12:15:13.040 ,3,0,0.,4.8,236.,4.8,0.,4.8,0.,4.8
1979-08-03 12:15:17.840 ,3,0,1.,4.8,216.,4.8,0.,4.8,0.,4.8
1979-08-03 12:15:22.640 ,3,0,3.,4.8,232.,4.8,0.,4.8,0.,4.8
1979-08-03 12:15:27.440 ,3,0,1.,4.8,216.,4.8,0.,4.8,0.,4.8
1979-08-03 12:15:32.240 ,3,0,1.,4.8,228.,4.8,0.,4.8,0.,4.8
1979-08-03 12:15:37.040 ,3,0,4.,4.8,212.,4.8,0.,4.8,0.,4.8
1979-08-03 12:15:41.840 ,3,0,0.,4.8,228.,4.8,0.,4.8,0.,4.8
1979-08-03 12:15:46.640 ,3,0,1.,4.8,220.,4.8,0.,4.8,0.,4.8
1979-08-03 12:15:51.440 ,3,0,0.,4.8,216.,4.8,0.,4.8,0.,4.8
1979-08-03 12:15:56.240 ,3,0,0.,4.8,216.,4.8,0.,4.8,0.,4.8
1979-08-03 12:16:01.040 ,4,0,1.,4.8,232.,4.8,0.,4.8,0.,4.8
1979-08-03 12:16:05.840 ,4,0,1.,4.8,236.,4.8,0.,4.8,0.,4.8
1979-08-03 12:16:10.640 ,4,0,2.,4.8,228.,4.8,0.,4.8,0.,4.8
1979-08-03 12:16:15.440 ,4,0,2.,4.8,228.,4.8,0.,4.8,0.,4.8
1979-08-03 12:16:20.240 ,4,0,1.,4.8,220.,4.8,0.,4.8,0.,4.8
1979-08-03 12:16:25.040 ,4,0,1.,4.8,228.,4.8,0.,4.8,0.,4.8
1979-08-03 12:16:29.840 ,4,0,1.,4.8,252.,4.8,0.,4.8,0.,4.8
1979-08-03 12:16:34.640 ,4,0,0.,4.8,204.,4.8,0.,4.8,0.,4.8
1979-08-03 12:16:39.440 ,4,0,1.,4.8,216.,4.8,0.,4.8,0.,4.8
1979-08-03 12:16:44.240 ,4,0,1.,4.8,256.,4.8,0.,4.8,0.,4.8
1979-08-03 12:16:49.040 ,5,0,0.,4.8,208.,4.8,0.,4.8,0.,4.8
1979-08-03 12:16:53.840 ,5,0,5.,4.8,220.,4.8,1.,4.8,0.,4.8
1979-08-03 12:16:58.640 ,5,0,0.,4.8,228.,4.8,0.,4.8,0.,4.8
1979-08-03 12:17:03.440 ,5,0,0.,4.8,224.,4.8,0.,4.8,0.,4.8
1979-08-03 12:17:08.240 ,5,0,1.,4.8,208.,4.8,0.,4.8,0.,4.8
1979-08-03 12:17:13.040 ,5,0,2.,4.8,212.,4.8,0.,4.8,0.,4.8
1979-08-03 12:17:17.840 ,5,0,0.,4.8,240.,4.8,0.,4.8,0.,4.8
1979-08-03 12:17:22.640 ,5,0,1.,4.8,228.,4.8,0.,4.8,0.,4.8
1979-08-03 12:17:27.440 ,5,0,5.,4.8,212.,4.8,0.,4.8,0.,4.8
1979-08-03 12:17:32.240 ,5,0,1.,4.8,220.,4.8,0.,4.8,0.,4.8
1979-08-03 12:17:37.040 ,6,0,0.,4.8,216.,4.8,0.,4.8,0.,4.8
1979-08-03 12:17:41.840 ,6,0,1.,4.8,240.,4.8,0.,4.8,0.,4.8
1979-08-03 12:17:46.640 ,6,0,3.,4.8,200.,4.8,0.,4.8,0.,4.8
1979-08-03 12:17:51.440 ,6,0,4.,4.8,212.,4.8,0.,4.8,0.,4.8
1979-08-03 12:17:56.240 ,6,0,2.,4.8,232.,4.8,0.,4.8,0.,4.8
1979-08-03 12:18:01.040 ,6,0,3.,4.8,196.,4.8,0.,4.8,0.,4.8
1979-08-03 12:18:05.840 ,6,0,1.,4.8,208.,4.8,0.,4.8,0.,4.8
1979-08-03 12:18:10.640 ,6,0,3.,4.8,216.,4.8,0.,4.8,0.,4.8
1979-08-03 12:18:15.440 ,6,0,3.,4.8,228.,4.8,0.,4.8,0.,4.8
1979-08-03 12:18:20.240 ,6,0,2.,4.8,200.,4.8,0.,4.8,0.,4.8
1979-08-03 12:18:25.040 ,7,0,1.,4.8,216.,4.8,0.,4.8,0.,4.8
1979-08-03 12:18:29.840 ,7,0,0.,4.8,212.,4.8,0.,4.8,0.,4.8
1979-08-03 12:18:34.640 ,7,0,3.,4.8,224.,4.8,0.,4.8,0.,4.8
1979-08-03 12:18:39.440 ,7,0,2.,4.8,216.,4.8,0.,4.8,0.,4.8
1979-08-03 12:18:44.240 ,7,0,3.,4.8,216.,4.8,0.,4.8,0.,4.8
1979-08-03 12:18:49.040 ,7,0,4.,4.8,248.,4.8,0.,4.8,0.,4.8
1979-08-03 12:18:53.840 ,7,0,2.,4.8,232.,4.8,0.,4.8,0.,4.8
1979-08-03 12:18:58.640 ,7,0,1.,4.8,192.,4.8,0.,4.8,0.,4.8
1979-08-03 12:19:03.440 ,7,0,3.,4.8,244.,4.8,0.,4.8,0.,4.8
1979-08-03 12:19:08.240 ,7,0,2.,4.8,236.,4.8,0.,4.8,0.,4.8
1979-08-03 12:19:13.040 ,3,1,3.,4.8,220.,4.8,0.,4.8,0.,4.8
1979-08-03 12:19:17.840 ,3,1,3.,4.8,216.,4.8,0.,4.8,0.,4.8
1979-08-03 12:19:22.640 ,3,1,3.,4.8,244.,4.8,0.,4.8,0.,4.8
1979-08-03 12:19:27.440 ,3,1,1.,4.8,256.,4.8,0.,4.8,0.,4.8
1979-08-03 12:19:32.240 ,3,1,2.,4.8,240.,4.8,0.,4.8,0.,4.8
1979-08-03 12:19:37.040 ,0,1,0.,4.8,224.,4.8,0.,4.8,0.,4.8
1979-08-03 12:19:41.840 ,0,1,1.,4.8,228.,4.8,0.,4.8,0.,4.8
1979-08-03 12:19:46.640 ,0,1,2.,4.8,236.,4.8,0.,4.8,0.,4.8
1979-08-03 12:19:51.440 ,0,1,2.,4.8,220.,4.8,0.,4.8,0.,4.8
1979-08-03 12:19:56.240 ,0,1,1.,4.8,256.,4.8,0.,4.8,0.,4.8
1979-08-03 12:20:01.040 ,4,1,2.,4.8,240.,4.8,0.,4.8,0.,4.8
1979-08-03 12:20:05.840 ,4,1,1.,4.8,248.,4.8,0.,4.8,0.,4.8
1979-08-03 12:20:10.640 ,4,1,1.,4.8,236.,4.8,0.,4.8,0.,4.8
1979-08-03 12:20:15.440 ,4,1,1.,4.8,232.,4.8,0.,4.8,0.,4.8
1979-08-03 12:20:20.240 ,4,1,2.,4.8,256.,4.8,0.,4.8,0.,4.8
1979-08-03 12:20:25.040 ,7,1,2.,4.8,240.,4.8,0.,4.8,0.,4.8
1979-08-03 12:20:29.840 ,7,1,1.,4.8,240.,4.8,0.,4.8,0.,4.8
1979-08-03 12:20:34.640 ,7,1,1.,4.8,204.,4.8,0.,4.8,0.,4.8
1979-08-03 12:20:39.440 ,7,1,1.,4.8,220.,4.8,0.,4.8,0.,4.8
1979-08-03 12:20:44.240 ,7,1,5.,4.8,236.,4.8,0.,4.8,0.,4.8
1979-08-03 12:20:49.040 ,3,1,2.,4.8,244.,4.8,0.,4.8,0.,4.8
1979-08-03 12:20:53.840 ,3,1,0.,4.8,216.,4.8,0.,4.8,0.,4.8
1979-08-03 12:20:58.640 ,3,1,2.,4.8,256.,4.8,0.,4.8,0.,4.8
1979-08-03 12:21:03.440 ,3,1,3.,4.8,212.,4.8,1.,4.8,0.,4.8
1979-08-03 12:21:08.240 ,3,1,0.,4.8,240.,4.8,0.,4.8,0.,4.8
1979-08-03 12:21:13.040 ,0,1,2.,4.8,252.,4.8,0.,4.8,0.,4.8
1979-08-03 12:21:17.840 ,0,1,2.,4.8,228.,4.8,0.,4.8,0.,4.8
1979-08-03 12:21:22.640 ,0,1,1.,4.8,220.,4.8,0.,4.8,0.,4.8
1979-08-03 12:21:27.440 ,0,1,2.,4.8,256.,4.8,0.,4.8,0.,4.8
1979-08-03 12:21:32.240 ,0,1,1.,4.8,220.,4.8,0.,4.8,0.,4.8
1979-08-03 12:21:37.040 ,4,1,3.,4.8,240.,4.8,0.,4.8,0.,4.8
1979-08-03 12:21:41.840 ,4,1,1.,4.8,236.,4.8,0.,4.8,0.,4.8
1979-08-03 12:21:46.640 ,4,1,3.,4.8,256.,4.8,0.,4.8,0.,4.8
1979-08-03 12:21:51.440 ,4,1,1.,4.8,224.,4.8,0.,4.8,0.,4.8
1979-08-03 12:21:56.240 ,4,1,1.,4.8,232.,4.8,0.,4.8,0.,4.8
1979-08-03 12:22:01.040 ,7,1,2.,4.8,208.,4.8,0.,4.8,0.,4.8
1979-08-03 12:22:05.840 ,7,1,3.,4.8,240.,4.8,0.,4.8,0.,4.8
1979-08-03 12:22:10.640 ,7,1,1.,4.8,240.,4.8,0.,4.8,0.,4.8
1979-08-03 12:22:15.440 ,7,1,0.,4.8,240.,4.8,0.,4.8,0.,4.8
1979-08-03 12:22:20.240 ,7,1,1.,4.8,204.,4.8,0.,4.8,0.,4.8
1979-08-03 12:22:25.040 ,3,1,3.,4.8,236.,4.8,0.,4.8,0.,4.8
1979-08-03 12:22:29.840 ,3,1,3.,4.8,228.,4.8,0.,4.8,0.,4.8
1979-08-03 12:22:34.640 ,3,1,0.,4.8,216.,4.8,0.,4.8,0.,4.8
1979-08-03 12:22:39.440 ,3,1,0.,4.8,236.,4.8,0.,4.8,0.,4.8
1979-08-03 12:22:44.240 ,3,1,3.,4.8,248.,4.8,0.,4.8,0.,4.8
1979-08-03 12:22:49.040 ,0,1,2.,4.8,252.,4.8,0.,4.8,0.,4.8
1979-08-03 12:22:53.840 ,0,1,0.,4.8,252.,4.8,0.,4.8,0.,4.8
1979-08-03 12:22:58.640 ,0,1,3.,4.8,244.,4.8,0.,4.8,0.,4.8
1979-08-03 12:23:03.440 ,0,1,3.,4.8,228.,4.8,0.,4.8,0.,4.8
1979-08-03 12:23:08.240 ,0,1,2.,4.8,212.,4.8,0.,4.8,0.,4.8
1979-08-03 12:23:13.040 ,4,1,2.,4.8,228.,4.8,0.,4.8,0.,4.8
1979-08-03 12:23:17.840 ,4,1,1.,4.8,204.,4.8,0.,4.8,0.,4.8
1979-08-03 12:23:22.640 ,4,1,4.,4.8,248.,4.8,0.,4.8,0.,4.8
1979-08-03 12:23:27.440 ,4,1,2.,4.8,228.,4.8,0.,4.8,0.,4.8
1979-08-03 12:23:32.240 ,4,1,2.,4.8,240.,4.8,0.,4.8,0.,4.8
1979-08-03 12:23:37.040 ,7,1,3.,4.8,236.,4.8,0.,4.8,0.,4.8
1979-08-03 12:23:41.840 ,7,1,4.,4.8,256.,4.8,0.,4.8,0.,4.8
1979-08-03 12:23:46.640 ,7,1,1.,4.8,236.,4.8,0.,4.8,0.,4.8
1979-08-03 12:23:51.440 ,7,1,1.,4.8,224.,4.8,0.,4.8,0.,4.8
1979-08-03 12:23:56.240 ,7,1,1.,4.8,228.,4.8,0.,4.8,0.,4.8
1979-08-03 12:24:01.040 ,3,1,4.,4.8,252.,4.8,0.,4.8,0.,4.8
1979-08-03 12:24:05.840 ,3,1,4.,4.8,228.,4.8,0.,4.8,0.,4.8
1979-08-03 12:24:10.640 ,3,1,4.,4.8,236.,4.8,0.,4.8,0.,4.8
1979-08-03 12:24:15.440 ,3,1,1.,4.8,244.,4.8,0.,4.8,0.,4.8
1979-08-03 12:24:20.240 ,3,1,2.,4.8,212.,4.8,0.,4.8,0.,4.8
1979-08-03 12:24:25.040 ,0,1,2.,4.8,240.,4.8,0.,4.8,0.,4.8
1979-08-03 12:24:29.840 ,0,1,2.,4.8,256.,4.8,0.,4.8,0.,4.8
1979-08-03 12:24:34.640 ,0,1,2.,4.8,240.,4.8,0.,4.8,0.,4.8
1979-08-03 12:24:39.440 ,0,1,0.,4.8,224.,4.8,0.,4.8,0.,4.8
1979-08-03 12:24:44.240 ,0,1,1.,4.8,240.,4.8,0.,4.8,0.,4.8
1979-08-03 12:24:49.040 ,4,1,4.,4.8,240.,4.8,0.,4.8,0.,4.8
1979-08-03 12:24:53.840 ,4,1,1.,4.8,252.,4.8,0.,4.8,0.,4.8
1979-08-03 12:24:58.640 ,4,1,0.,4.8,236.,4.8,0.,4.8,0.,4.8
1979-08-03 12:25:03.440 ,4,1,2.,4.8,228.,4.8,0.,4.8,0.,4.8
1979-08-03 12:25:08.240 ,4,1,3.,4.8,204.,4.8,0.,4.8,0.,4.8
1979-08-03 12:25:13.040 ,7,1,1.,4.8,228.,4.8,0.,4.8,0.,4.8
1979-08-03 12:25:17.840 ,7,1,1.,4.8,240.,4.8,0.,4.8,0.,4.8
1979-08-03 12:25:22.640 ,7,1,2.,4.8,216.,4.8,0.,4.8,0.,4.8
1979-08-03 12:25:27.440 ,7,1,1.,4.8,240.,4.8,0.,4.8,0.,4.8
1979-08-03 12:25:32.240 ,7,1,4.,4.8,220.,4.8,0.,4.8,0.,4.8
1979-08-03 12:25:37.040 ,3,1,1.,4.8,188.,4.8,0.,4.8,0.,4.8
1979-08-03 12:25:41.840 ,3,1,0.,4.8,216.,4.8,0.,4.8,0.,4.8
1979-08-03 12:25:46.640 ,3,1,3.,4.8,252.,4.8,0.,4.8,0.,4.8
1979-08-03 12:25:51.440 ,3,1,0.,4.8,228.,4.8,0.,4.8,0.,4.8
1979-08-03 12:25:56.240 ,3,1,0.,4.8,220.,4.8,0.,4.8,0.,4.8
1979-08-03 12:26:01.040 ,0,1,2.,4.8,216.,4.8,0.,4.8,0.,4.8
1979-08-03 12:26:05.840 ,0,1,2.,4.8,244.,4.8,0.,4.8,0.,4.8
1979-08-03 12:26:10.640 ,0,1,3.,4.8,256.,4.8,0.,4.8,0.,4.8
1979-08-03 12:26:15.440 ,0,1,3.,4.8,224.,4.8,0.,4.8,0.,4.8
1979-08-03 12:26:20.240 ,0,1,0.,4.8,212.,4.8,0.,4.8,0.,4.8
1979-08-03 12:26:25.040 ,4,1,3.,4.8,216.,4.8,0.,4.8,0.,4.8
1979-08-03 12:26:29.840 ,4,1,2.,4.8,240.,4.8,0.,4.8,0.,4.8
1979-08-03 12:26:34.640 ,4,1,3.,4.8,236.,4.8,0.,4.8,0.,4.8
1979-08-03 12:26:39.440 ,4,1,0.,4.8,224.,4.8,0.,4.8,0.,4.8
1979-08-03 12:26:44.240 ,4,1,1.,4.8,208.,4.8,0.,4.8,0.,4.8
1979-08-03 12:26:49.040 ,7,1,2.,4.8,244.,4.8,0.,4.8,0.,4.8
1979-08-03 12:26:53.840 ,7,1,0.,4.8,224.,4.8,0.,4.8,0.,4.8
1979-08-03 12:26:58.640 ,7,1,1.,4.8,244.,4.8,0.,4.8,0.,4.8
1979-08-03 12:27:03.440 ,7,1,3.,4.8,200.,4.8,0.,4.8,0.,4.8
1979-08-03 12:27:08.240 ,7,1,2.,4.8,212.,4.8,0.,4.8,0.,4.8
1979-08-03 12:27:13.040 ,3,1,0.,4.8,216.,4.8,0.,4.8,0.,4.8
1979-08-03 12:27:17.840 ,3,1,3.,4.8,192.,4.8,0.,4.8,0.,4.8
1979-08-03 12:27:22.640 ,3,1,1.,4.8,228.,4.8,0.,4.8,0.,4.8
1979-08-03 12:27:27.440 ,3,1,3.,4.8,188.,4.8,0.,4.8,0.,4.8
1979-08-03 12:27:32.240 ,3,1,2.,4.8,236.,4.8,0.,4.8,0.,4.8
1979-08-03 12:27:37.040 ,0,1,3.,4.8,216.,4.8,0.,4.8,0.,4.8
1979-08-03 12:27:41.840 ,0,1,2.,4.8,224.,4.8,0.,4.8,0.,4.8
1979-08-03 12:27:46.640 ,0,1,4.,4.8,184.,4.8,0.,4.8,0.,4.8
1979-08-03 12:27:51.440 ,0,1,3.,4.8,240.,4.8,0.,4.8,0.,4.8
1979-08-03 12:27:56.240 ,0,1,3.,4.8,204.,4.8,0.,4.8,0.,4.8
1979-08-03 12:28:01.040 ,4,1,0.,4.8,200.,4.8,0.,4.8,0.,4.8
1979-08-03 12:28:05.840 ,4,1,1.,4.8,224.,4.8,0.,4.8,0.,4.8
1979-08-03 12:28:10.640 ,4,1,2.,4.8,208.,4.8,0.,4.8,0.,4.8
1979-08-03 12:28:15.440 ,4,1,0.,4.8,224.,4.8,0.,4.8,0.,4.8
1979-08-03 12:28:20.240 ,4,1,0.,4.8,232.,4.8,0.,4.8,0.,4.8
1979-08-03 12:28:25.040 ,7,1,1.,4.8,224.,4.8,0.,4.8,0.,4.8
1979-08-03 12:28:29.840 ,7,1,2.,4.8,212.,4.8,0.,4.8,0.,4.8
1979-08-03 12:28:34.640 ,7,1,1.,4.8,208.,4.8,0.,4.8,0.,4.8
1979-08-03 12:28:39.440 ,7,1,1.,4.8,208.,4.8,0.,4.8,0.,4.8
1979-08-03 12:28:44.240 ,7,1,2.,4.8,252.,4.8,0.,4.8,0.,4.8
1979-08-03 12:28:49.040 ,3,1,1.,4.8,200.,4.8,0.,4.8,0.,4.8
1979-08-03 12:28:53.840 ,3,1,0.,4.8,180.,4.8,0.,4.8,0.,4.8
1979-08-03 12:28:58.640 ,3,1,2.,4.8,220.,4.8,0.,4.8,0.,4.8
1979-08-03 12:29:03.440 ,3,1,3.,4.8,224.,4.8,0.,4.8,0.,4.8
1979-08-03 12:29:08.240 ,3,1,3.,4.8,216.,4.8,0.,4.8,0.,4.8
1979-08-03 12:29:13.040 ,0,1,1.,4.8,200.,4.8,0.,4.8,0.,4.8
1979-08-03 12:29:17.840 ,0,1,3.,4.8,236.,4.8,0.,4.8,0.,4.8
1979-08-03 12:29:22.640 ,0,1,5.,4.8,216.,4.8,0.,4.8,0.,4.8
1979-08-03 12:29:27.440 ,0,1,3.,4.8,188.,4.8,0.,4.8,0.,4.8
1979-08-03 12:29:32.240 ,0,1,1.,4.8,204.,4.8,0.,4.8,0.,4.8
1979-08-03 12:29:37.040 ,0,0,0.,4.8,228.,4.8,0.,4.8,0.,4.8
1979-08-03 12:29:41.840 ,0,0,2.,4.8,228.,4.8,0.,4.8,0.,4.8
1979-08-03 12:29:46.640 ,0,0,1.,4.8,220.,4.8,0.,4.8,0.,4.8
1979-08-03 12:29:51.440 ,0,0,1.,4.8,188.,4.8,0.,4.8,0.,4.8
1979-08-03 12:29:56.240 ,0,0,1.,4.8,200.,4.8,0.,4.8,0.,4.8
1979-08-03 12:30:01.040 ,0,0,4.,4.8,208.,4.8,0.,4.8,0.,4.8
1979-08-03 12:30:05.840 ,0,0,2.,4.8,196.,4.8,0.,4.8,0.,4.8
1979-08-03 12:30:10.640 ,0,0,1.,4.8,216.,4.8,0.,4.8,0.,4.8
1979-08-03 12:30:15.440 ,0,0,2.,4.8,216.,4.8,0.,4.8,0.,4.8
1979-08-03 12:30:20.240 ,0,0,3.,4.8,196.,4.8,0.,4.8,0.,4.8
1979-08-03 12:30:25.040 ,5,0,3.,4.8,224.,4.8,0.,4.8,0.,4.8
1979-08-03 12:30:29.840 ,5,0,0.,4.8,208.,4.8,0.,4.8,0.,4.8
1979-08-03 12:30:34.640 ,5,0,2.,4.8,184.,4.8,0.,4.8,0.,4.8
1979-08-03 12:30:39.440 ,5,0,1.,4.8,180.,4.8,0.,4.8,0.,4.8
1979-08-03 12:30:44.240 ,5,0,0.,4.8,220.,4.8,0.,4.8,0.,4.8
1979-08-03 12:30:49.040 ,5,0,0.,4.8,236.,4.8,0.,4.8,0.,4.8
1979-08-03 12:30:53.840 ,5,0,1.,4.8,220.,4.8,0.,4.8,0.,4.8
1979-08-03 12:30:58.640 ,5,0,3.,4.8,208.,4.8,0.,4.8,0.,4.8
1979-08-03 12:31:03.440 ,5,0,3.,4.8,228.,4.8,0.,4.8,0.,4.8
1979-08-03 12:31:08.240 ,5,0,2.,4.8,220.,4.8,0.,4.8,0.,4.8
1979-08-03 12:31:13.040 ,4,0,2.,4.8,216.,4.8,0.,4.8,0.,4.8
1979-08-03 12:31:17.840 ,4,0,2.,4.8,232.,4.8,0.,4.8,0.,4.8
1979-08-03 12:31:22.640 ,4,0,2.,4.8,224.,4.8,0.,4.8,0.,4.8
1979-08-03 12:31:27.440 ,4,0,3.,4.8,244.,4.8,0.,4.8,0.,4.8
1979-08-03 12:31:32.240 ,4,0,1.,4.8,204.,4.8,0.,4.8,0.,4.8
1979-08-03 12:31:37.040 ,4,0,3.,4.8,212.,4.8,0.,4.8,0.,4.8
1979-08-03 12:31:41.840 ,4,0,1.,4.8,208.,4.8,0.,4.8,0.,4.8
1979-08-03 12:31:46.640 ,4,0,1.,4.8,228.,4.8,0.,4.8,0.,4.8
1979-08-03 12:31:51.440 ,4,0,1.,4.8,244.,4.8,0.,4.8,0.,4.8
1979-08-03 12:31:56.240 ,4,0,3.,4.8,212.,4.8,0.,4.8,0.,4.8
1979-08-03 12:32:01.040 ,3,0,2.,4.8,212.,4.8,0.,4.8,0.,4.8
1979-08-03 12:32:05.840 ,3,0,2.,4.8,188.,4.8,0.,4.8,0.,4.8
1979-08-03 12:32:10.640 ,3,0,1.,4.8,220.,4.8,0.,4.8,0.,4.8
1979-08-03 12:32:15.440 ,3,0,2.,4.8,204.,4.8,0.,4.8,0.,4.8